Weather History for Benton Harbor, MI

Change the Weather History Date:

Sunday, February 3, 2013

  Actual Average Record
Temperature  
Mean Temperature 19 °F -  
Max Temperature 23 °F 32 °F 56 °F (1991)
Min Temperature 15 °F 16 °F -9 °F (1985)
Degree Days  
Heating Degree Days 46    
Moisture  
Dew Point 12 °F    
Average Humidity 73    
Maximum Humidity 88    
Minimum Humidity 63    
Precipitation  
Precipitation 0.00 in - - ()
Sea Level Pressure  
Sea Level Pressure 29.97 in    
Wind  
Wind Speed 9 mph (West)    
Max Wind Speed 20 mph    
Max Gust Speed 28 mph    
Visibility 5 miles    
Events Snow    
Averages and records for this station are not official NWS values.
T = Trace of Precipitation, MM = Missing Value Source: NWS Daily Summary

Daily Weather History Graph

Daily Weather History Graph

Search for Another Location

Airport:

Trip Planner

Search our weather history database for the weather conditions in past years. The results will help you decide how hot, cold, wet, or windy it might be!

Date:

Astronomy

Feb. 03, 2013 Rise Set
Actual Time 7:56 AM EST 6:03 PM EST
Civil Twilight 7:26 AM EST 6:32 PM EST
Nautical Twilight 6:53 AM EST 7:06 PM EST
Astronomical Twilight 6:20 AM EST 7:38 PM EST
Moon 1:23 AM EST (2/3) 11:39 AM EST (2/3)
Length of Visible Light 11h 05m
Length of Day
10h 06m
Waning Gibbous, 49% of the Moon is Illuminated
Feb 3
Waning Gibbous
Feb 10
New
Feb 17
First Quarter
Feb 25
Full
Mar 4
Last Quarter

Hourly Weather History & Observations

Time (EST) Temp. Windchill Dew Point Humidity Pressure Visibility Wind Dir Wind Speed Gust Speed Precip Events Conditions
12:53 AM 15.1 °F 9.4 °F 8.1 °F 74% 30.03 in 10.0 mi SE 3.5 mph - N/A   Overcast
1:53 AM 15.1 °F 9.4 °F 9.0 °F 77% 30.01 in 10.0 mi SE 3.5 mph - N/A   Overcast
2:02 AM 15.8 °F 10.2 °F 8.6 °F 73% 29.98 in 10.0 mi SE 3.5 mph - N/A   Overcast
2:25 AM 15.8 °F 10.2 °F 10.4 °F 79% 29.97 in 10.0 mi East 3.5 mph - N/A   Overcast
2:41 AM 15.8 °F 10.2 °F 10.4 °F 79% 29.97 in 10.0 mi SE 3.5 mph - N/A   Overcast
2:53 AM 15.1 °F 7.7 °F 10.0 °F 80% 30.00 in 10.0 mi SE 4.6 mph - N/A   Overcast
3:33 AM 15.8 °F 7.2 °F 10.4 °F 79% 29.95 in 1.8 mi SE 5.8 mph - 0.00 in Snow Light Snow
3:42 AM 15.8 °F 7.2 °F 10.4 °F 79% 29.94 in 1.0 mi SE 5.8 mph - 0.00 in Snow Light Snow
3:53 AM 15.1 °F 5.2 °F 10.9 °F 84% 29.98 in 1.2 mi SE 6.9 mph - 0.00 in Snow Light Snow
4:04 AM 15.8 °F 7.2 °F 10.4 °F 79% 29.93 in 2.0 mi SE 5.8 mph - 0.00 in Snow Light Snow
4:42 AM 15.8 °F 7.2 °F 12.2 °F 86% 29.92 in 1.8 mi SSE 5.8 mph - 0.00 in Snow Light Snow
4:53 AM 16.0 °F 10.4 °F 12.9 °F 88% 29.95 in 1.5 mi South 3.5 mph - 0.00 in Snow Light Snow
5:03 AM 17.6 °F 12.3 °F 14.0 °F 86% 29.91 in 2.5 mi South 3.5 mph - 0.00 in Snow Light Snow
5:40 AM 19.4 °F 6.6 °F 14.0 °F 80% 29.92 in 5.0 mi WSW 12.7 mph - 0.00 in Snow Light Snow
5:53 AM 19.0 °F 6.8 °F 12.9 °F 77% 29.95 in 6.0 mi West 11.5 mph - 0.00 in Snow Light Snow
6:53 AM 19.0 °F 7.5 °F 10.9 °F 71% 29.94 in 10.0 mi West 10.4 mph - 0.00 in   Overcast
7:53 AM 19.0 °F 5.6 °F 12.0 °F 74% 29.96 in 7.0 mi West 13.8 mph - 0.00 in Snow Light Snow
8:22 AM 19.4 °F 7.2 °F 12.2 °F 74% 29.93 in 2.0 mi West 11.5 mph 21.9 mph 0.00 in Snow Light Snow
8:36 AM 19.4 °F 7.2 °F 12.2 °F 74% 29.93 in 1.2 mi West 11.5 mph 20.7 mph 0.00 in Snow Light Snow
8:44 AM 19.4 °F 7.2 °F 12.2 °F 74% 29.93 in 1.5 mi West 11.5 mph - 0.00 in Snow Light Snow
8:53 AM 19.0 °F 5.0 °F 12.9 °F 77% 29.97 in 1.5 mi West 15.0 mph 19.6 mph 0.00 in Snow Light Snow
9:02 AM 19.4 °F 7.2 °F 12.2 °F 74% 29.93 in 2.5 mi West 11.5 mph 20.7 mph 0.00 in Snow Light Snow
9:26 AM 19.4 °F 5.5 °F 12.2 °F 74% 29.93 in 3.0 mi West 15.0 mph 23.0 mph 0.00 in Snow Light Snow
9:31 AM 19.4 °F 5.0 °F 12.2 °F 74% 29.93 in 1.8 mi West 16.1 mph 23.0 mph 0.00 in Snow Light Snow
9:44 AM 19.4 °F 8.6 °F 12.2 °F 74% 29.93 in 2.5 mi West 9.2 mph - 0.00 in Snow Light Snow
9:53 AM 19.9 °F 6.7 °F 12.9 °F 74% 29.96 in 2.5 mi West 13.8 mph - 0.00 in Snow Light Snow
10:17 AM 19.4 °F 5.0 °F 12.2 °F 74% 29.93 in 1.5 mi West 16.1 mph 21.9 mph 0.00 in Snow Light Snow
10:30 AM 19.4 °F 6.0 °F 14.0 °F 80% 29.93 in 0.8 mi WNW 13.8 mph 21.9 mph 0.00 in Snow Light Snow
10:45 AM 19.4 °F 4.5 °F 14.0 °F 80% 29.93 in 1.0 mi West 17.3 mph 24.2 mph 0.00 in Snow Light Snow
10:53 AM 19.9 °F 7.9 °F 14.0 °F 78% 29.97 in 1.0 mi WNW 11.5 mph 19.6 mph 0.00 in Snow Light Snow
11:53 AM 21.0 °F 8.1 °F 14.0 °F 74% 29.96 in 1.5 mi WNW 13.8 mph 23.0 mph 0.00 in Snow Light Snow
12:22 PM 21.2 °F 7.3 °F 14.0 °F 74% 29.93 in 3.0 mi West 16.1 mph 23.0 mph 0.00 in Snow Light Snow
12:31 PM 21.2 °F 6.8 °F 14.0 °F 74% 29.92 in 1.8 mi WNW 17.3 mph 25.3 mph 0.00 in Snow Light Snow
12:53 PM 21.0 °F 6.6 °F 15.1 °F 78% 29.96 in 1.5 mi WNW 17.3 mph 25.3 mph 0.00 in Snow Light Snow
1:02 PM 21.2 °F 8.9 °F 14.0 °F 74% 29.92 in 2.5 mi WNW 12.7 mph 25.3 mph 0.00 in Snow Light Snow
1:22 PM 21.2 °F 7.3 °F 14.0 °F 74% 29.93 in 1.5 mi WNW 16.1 mph 25.3 mph 0.00 in Snow Light Snow
1:35 PM 21.2 °F 9.5 °F 15.8 °F 80% 29.93 in 0.8 mi WNW 11.5 mph 26.5 mph 0.00 in Snow Light Snow
1:48 PM 21.2 °F 6.8 °F 15.8 °F 80% 29.93 in 0.5 mi WNW 17.3 mph 26.5 mph 0.00 in Snow Snow
1:53 PM 21.0 °F 6.6 °F 15.1 °F 78% 29.97 in 0.5 mi WNW 17.3 mph 26.5 mph 0.00 in Snow Snow
2:02 PM 21.2 °F 6.4 °F 15.8 °F 80% 29.93 in 1.0 mi WNW 18.4 mph 26.5 mph 0.00 in Snow Light Snow
2:26 PM 21.2 °F 6.8 °F 14.0 °F 74% 29.94 in 1.5 mi WNW 17.3 mph 27.6 mph 0.00 in Snow Light Snow
2:36 PM 21.2 °F 9.5 °F 14.0 °F 74% 29.94 in 2.0 mi WNW 11.5 mph 26.5 mph 0.00 in Snow Light Snow
2:50 PM 21.2 °F 6.8 °F 12.2 °F 68% 29.95 in 3.0 mi WNW 17.3 mph 25.3 mph 0.00 in Snow Light Snow
2:53 PM 21.0 °F 5.7 °F 12.9 °F 71% 29.98 in 3.0 mi WNW 19.6 mph 26.5 mph 0.00 in Snow Light Snow
3:53 PM 21.0 °F 7.1 °F 12.0 °F 68% 30.01 in 9.0 mi WNW 16.1 mph 23.0 mph 0.00 in   Overcast
4:53 PM 21.9 °F 11.0 °F 10.9 °F 63% 30.01 in 10.0 mi WNW 10.4 mph 21.9 mph N/A   Overcast
5:00 PM 21.2 °F 7.8 °F 12.2 °F 68% 29.98 in 10.0 mi WNW 15.0 mph 23.0 mph N/A   Overcast
5:53 PM 21.9 °F 9.8 °F 12.0 °F 66% 30.01 in 10.0 mi West 12.7 mph 19.6 mph N/A   Overcast
6:28 PM 21.2 °F 8.3 °F 12.2 °F 68% 29.99 in 10.0 mi WNW 13.8 mph 24.2 mph N/A   Overcast
6:53 PM 23.0 °F 12.4 °F 12.0 °F 63% 30.03 in 10.0 mi WNW 10.4 mph 21.9 mph N/A   Overcast
7:04 PM 23.0 °F 9.6 °F 12.2 °F 63% 30.00 in 10.0 mi West 16.1 mph 24.2 mph N/A   Overcast
7:26 PM 21.2 °F 9.5 °F 10.4 °F 63% 30.00 in 10.0 mi West 11.5 mph - N/A   Overcast
7:53 PM 23.0 °F 12.4 °F 12.0 °F 63% 30.04 in 10.0 mi WNW 10.4 mph 23.0 mph N/A   Overcast
8:53 PM 23.0 °F 14.7 °F 12.0 °F 63% 30.04 in 10.0 mi WNW 6.9 mph - N/A   Overcast
9:22 PM 23.0 °F 11.1 °F 12.2 °F 63% 30.01 in 10.0 mi West 12.7 mph 20.7 mph N/A   Overcast
9:53 PM 23.0 °F 11.1 °F 12.0 °F 63% 30.04 in 10.0 mi West 12.7 mph - N/A   Overcast
10:08 PM 23.0 °F 11.7 °F 12.2 °F 63% 30.01 in 10.0 mi West 11.5 mph - N/A   Overcast
10:53 PM 23.0 °F 11.7 °F 14.0 °F 68% 30.05 in 10.0 mi West 11.5 mph - N/A   Overcast
11:30 PM 23.0 °F 11.1 °F 12.2 °F 63% 30.02 in 10.0 mi West 12.7 mph - N/A   Overcast
11:38 PM 23.0 °F 12.4 °F 12.2 °F 63% 30.02 in 10.0 mi WNW 10.4 mph - N/A   Overcast
11:53 PM 23.0 °F 12.4 °F 12.9 °F 65% 30.05 in 10.0 mi West 10.4 mph - N/A   Overcast